| time (UTC) | temp F | wind direction | speed knots | gust knots | rain 1hr in | rain 24hr in | rain mn in | humidity % | barometer mb |
| 20260503193053 | 75 | 288 | 0.0 | 0.0 | 0.00 | 0.00 | 0.00 | 68 | 996.2 |
| 20260503191549 | 74 | 280 | 0.0 | 0.9 | 0.00 | 0.00 | 0.00 | 70 | 996.3 |
| 20260503190047 | 75 | 301 | 0.0 | 0.0 | 0.00 | 0.00 | 0.00 | 67 | 996.4 |
| 20260503184555 | 75 | 23 | 0.0 | 0.0 | 0.00 | 0.00 | 0.00 | 65 | 996.5 |
| 20260503183053 | 74 | 254 | 0.0 | 0.9 | 0.00 | 0.00 | 0.00 | 72 | 996.8 |
| 20260503181538 | 72 | 343 | 0.0 | 3.5 | 0.00 | 0.00 | 0.00 | 73 | 996.8 |
| 20260503180035 | 73 | 7 | 0.0 | 1.7 | 0.00 | 0.00 | 0.00 | 70 | 997.0 |
| 20260503174531 | 71 | 325 | 0.0 | 4.3 | 0.00 | 0.00 | 0.00 | 72 | 996.9 |
| 20260503173029 | 70 | 298 | 0.0 | 0.0 | 0.00 | 0.00 | 0.00 | 73 | 997.0 |
| 20260503171526 | 69 | 267 | 0.0 | 0.0 | 0.00 | 0.00 | 0.00 | 76 | 997.0 |
| 20260503081522 | 52 | 68 | 0.0 | 0.0 | 0.00 | 0.00 | 0.00 | 94 | 997.8 |
| 20260503071510 | 54 | 122 | 0.0 | 0.0 | 0.00 | 0.00 | 0.00 | 93 | 997.7 |
| 20260503054512 | 56 | 117 | 0.0 | 0.0 | 0.00 | 0.00 | 0.00 | 91 | 997.6 |
| 20260503053005 | 57 | 117 | 0.0 | 0.0 | 0.00 | 0.00 | 0.00 | 90 | 997.5 |
| 20260503051503 | 58 | 117 | 0.0 | 0.0 | 0.00 | 0.00 | 0.00 | 89 | 997.6 |
| 20260503050008 | 59 | 131 | 0.0 | 0.0 | 0.00 | 0.00 | 0.00 | 89 | 997.4 |
| 20260503044504 | 59 | 132 | 0.0 | 0.0 | 0.00 | 0.00 | 0.00 | 88 | 997.4 |
| 20260503043002 | 60 | 173 | 0.0 | 0.0 | 0.00 | 0.00 | 0.00 | 86 | 997.3 |
| 20260503041507 | 62 | 172 | 0.0 | 0.0 | 0.00 | 0.00 | 0.00 | 83 | 997.0 |
| 20260503040001 | 64 | 173 | 0.0 | 0.0 | 0.00 | 0.00 | 0.00 | 79 | 996.9 |
| 20260503034502 | 66 | 316 | 0.0 | 0.0 | 0.00 | 0.00 | 0.00 | 75 | 996.7 |
| 20260503033000 | 67 | 235 | 0.0 | 0.0 | 0.00 | 0.00 | 0.00 | 75 | 996.4 |
| 20260503031602 | 69 | 235 | 0.0 | 0.0 | 0.00 | 0.00 | 0.00 | 71 | 996.3 |
| 20260503030110 | 72 | 264 | 0.0 | 0.0 | 0.00 | 0.00 | 0.00 | 65 | 996.1 |
| 20260503024623 | 73 | 302 | 0.0 | 0.0 | 0.00 | 0.00 | 0.00 | 65 | 996.1 |
| 20260503023107 | 74 | 243 | 0.0 | 0.0 | 0.00 | 0.00 | 0.00 | 64 | 996.0 |
| 20260503021604 | 74 | 256 | 0.0 | 1.7 | 0.00 | 0.00 | 0.00 | 65 | 996.0 |
| 20260503020057 | 74 | 295 | 0.0 | 3.5 | 0.00 | 0.00 | 0.00 | 62 | 996.0 |
| 20260503014559 | 75 | 253 | 0.0 | 0.0 | 0.00 | 0.00 | 0.00 | 62 | 995.9 |
| 20260503013056 | 75 | 321 | 0.0 | 0.9 | 0.00 | 0.00 | 0.00 | 63 | 995.9 |
| 20260503011600 | 75 | 269 | 0.0 | 0.0 | 0.00 | 0.00 | 0.00 | 65 | 995.9 |
| 20260503010054 | 76 | 281 | 0.0 | 0.0 | 0.00 | 0.00 | 0.00 | 65 | 996.0 |
| 20260503004554 | 76 | 316 | 0.0 | 0.0 | 0.00 | 0.00 | 0.00 | 66 | 996.1 |
| 20260503003050 | 75 | 311 | 0.0 | 0.0 | 0.00 | 0.00 | 0.00 | 63 | 996.2 |
| 20260503001559 | 76 | 20 | 0.0 | 7.8 | 0.00 | 0.00 | 0.00 | 65 | 996.3 |
| 20260503000103 | 75 | 294 | 0.9 | 7.0 | 0.00 | 0.00 | 0.00 | 67 | 996.4 |
| 20260502234552 | 75 | 222 | 0.0 | 5.2 | 0.00 | 0.00 | 0.00 | 68 | 996.2 |
| 20260502233059 | 75 | 290 | 0.0 | 5.2 | 0.00 | 0.00 | 0.00 | 69 | 996.5 |
| 20260502231557 | 74 | 267 | 0.9 | 6.1 | 0.00 | 0.00 | 0.00 | 67 | 996.7 |
| 20260502230036 | 72 | 269 | 0.0 | 0.9 | 0.00 | 0.00 | 0.00 | 71 | 996.9 |
| 20260502224534 | 72 | 305 | 0.0 | 0.0 | 0.00 | 0.00 | 0.00 | 72 | 997.1 |
| 20260502223037 | 72 | 284 | 0.0 | 0.0 | 0.00 | 0.00 | 0.00 | 69 | 997.3 |
| 20260502221532 | 72 | 243 | 0.0 | 0.0 | 0.00 | 0.00 | 0.00 | 73 | 997.5 |
| 20260502220036 | 71 | 210 | 0.0 | 5.2 | 0.00 | 0.00 | 0.00 | 73 | 997.7 |
| 20260502214527 | 71 | 248 | 0.0 | 3.5 | 0.00 | 0.00 | 0.00 | 72 | 997.8 |
| 20260502213026 | 70 | 249 | 0.9 | 6.1 | 0.00 | 0.00 | 0.00 | 73 | 997.9 |
| 20260502211533 | 71 | 323 | 0.0 | 2.6 | 0.00 | 0.00 | 0.00 | 75 | 998.0 |
| 20260502210019 | 69 | 245 | 0.0 | 0.9 | 0.00 | 0.00 | 0.00 | 73 | 998.1 |
| 20260502204519 | 68 | 269 | 0.0 | 0.0 | 0.00 | 0.00 | 0.00 | 77 | 998.2 |
| 20260502203018 | 68 | 231 | 0.0 | 0.0 | 0.00 | 0.00 | 0.00 | 75 | 998.3 |
| 20260502201517 | 69 | 251 | 0.0 | 0.0 | 0.00 | 0.00 | 0.00 | 74 | 998.5 |
| 20260502200013 | 67 | 236 | 0.0 | 0.0 | 0.00 | 0.00 | 0.00 | 75 | 998.6 |
| 20260502194510 | 66 | 240 | 0.0 | 0.0 | 0.00 | 0.00 | 0.00 | 79 | 998.7 |